DMSP 5D-3 F19 DEB

Satellite information

Favourite Embed

Satellite Type and Status

DEBRISIN ORBIT

Key statistics

Satellite DMSP 5D-3 F19 DEB at a glance.

Uptime

4277

Days in orbit

Revolutions

≈ 14.3

Per day

Orbit

SSO

Sun Synchronous Orbit

Inclination

98.7

Latest

Satellite identification and parameters

Extended collection of information and parameters for DMSP 5D-3 F19 DEB.

Object identification

Identified? True

Debris? True

Object name: DMSP 5D-3 F19 DEB

International designator: 2014-015D

Object number (NORAD): 39633

Object ID (CCSDS): 39633

Country: UNITED STATES OF AMERICA (US)

Current information (Y/N): Y

RCS size: SMALL

Orbital parameters

Period: 101.01 minutes

Inclination: 98.6767 deg

SMA: 7184.619 km

Apoapsis: 809.569 km

Periapsis: 803.399 km

RAAN: 1.2912 deg

Eccentricy: 0.00042941

Argument of periapsis: 285.6499 deg

Mean anomaly: 74.4206 deg

Mean motion: 14.25598327 rev/day

Mean motion (dot): 0.00001703 rev/day2

B* drag term: 0.00073781763 1/REarth

Two-line elements (TLE)

Creation date: Dec. 18, 2025, 2:19 a.m.

Reference frame: TEME

Reference center: EARTH

Epoch: Dec. 17, 2025, 6:01 p.m. UTC

TLE line 0: 0 DMSP 5D-3 F19 DEB

TLE line 1: 1 39633U 14015D 25351.75099658 .00001703 00000-0 73782-3 0 9991

TLE line 2: 2 39633 98.6767 1.2912 0004294 285.6499 74.4206 14.25598327605781

Live tracking on map

Real-time ground track for satellite DMSP 5D-3 F19 DEB.

In-orbit conjunctions

A list of the most updated potential collisions computed for object DMSP 5D-3 F19 DEB.

Target Orbit TCA Probability of collision Miss distance Type
CZ-6A R/B LEO 2025-09-07 12:58:36 0.000292516 868.0 (m) ROCKET BODY

Associated space launch

DMSP-5D3 (Defense Meteorological Satellite Program Block 5D3) is the eleventh and most recent version of the military meteorological satellites of the Defense Meteorological Satellite Program.

DMSP 5D-3 F19 DEB was lifted into orbit during the mission ‘Atlas V 401 | DMSP-5D3 F19’, on board a Atlas V 401 space rocket.

The launch took place on April 3, 2014, 2:46 p.m. from Space Launch Complex 3E.

For more information about the launch, click the button.

Launch to space Atlas V 401 | DMSP-5D3 F19
Atlas V 401 | DMSP-5D3 F19

Agency: N/A

Status: Launch Successful

Launch date: April 3, 2014, 2:46 p.m. UTC

Rocket: Atlas V 401

Launch pad: Space Launch Complex 3E

Location: Vandenberg SFB, CA, USA

...

Latest news about this satellite

There are no fresh news available about this satellite. Check back as we update our databases every day.


Newsletter sign-up

Weekly statistics, charts and insights to help you stay on top of the space industry.